GCOM-C

Satellite information

Favourite Embed

Satellite Type and Status

PAYLOADIN ORBIT

Key statistics

Satellite GCOM-C at a glance.

Uptime

2753

Days in orbit

Revolutions

≈ 14.3

Per day

Orbit

SSO

Sun Synchronous Orbit

Inclination

98.7

Latest

Satellite identification and parameters

Extended collection of information and parameters for GCOM-C.

Object identification

Identified? True

Debris? False

Object name: GCOM-C

International designator: 2017-082A

Object number (NORAD): 43065

Object ID (CCSDS): 43065

Country: JAPAN (JPN)

Current information (Y/N): Y

RCS size: LARGE

Orbital parameters

Period: 100.892 minutes

Inclination: 98.6664 deg

SMA: 7179.02 km

Apoapsis: 801.985 km

Periapsis: 799.785 km

RAAN: 259.6796 deg

Eccentricy: 0.0001532

Argument of periapsis: 102.7442 deg

Mean anomaly: 257.391 deg

Mean motion: 14.27266379 rev/day

Mean motion (dot): 0.00000096 rev/day2

B* drag term: 0.000057177 1/REarth

Two-line elements (TLE)

Creation date: July 6, 2025, 6:05 p.m.

Reference frame: TEME

Reference center: EARTH

Epoch: July 6, 2025, 4:28 a.m. UTC

TLE line 0: 0 GCOM-C

TLE line 1: 1 43065U 17082A 25187.18634792 .00000096 00000-0 57177-4 0 9995

TLE line 2: 2 43065 98.6664 259.6796 0001532 102.7442 257.3910 14.27266379392585

Live tracking on map

Real-time ground track for satellite GCOM-C.

In-orbit conjunctions

There are no conjunctions computed for GCOM-C, at the moment. Check back to stay up to date, as we update our databases every day.

Go to all conjunctions

Associated space launch

GCOM-C1 is another satellite in JAXA's Earth observation Global Change Observation Mission (GCOM) constellation. This spacecraft is the first satellite in GCOM-C series and is intended to operate in sun-synchronous orbit for 5 years. It aims to collect surface and atmospheric measurements in order to monitor global climate change. Along with it is launched an engineering test satellite SLATS (Super Low Altitude Test Satellite), which is an attempt to develop techniques to operate a satellite in extremely low orbits. SLATS will try achieve that by maintaining position in orbit via ion engines. It will also collect data on atmosphere density and measure atomic oxygen in such low altitudes.

GCOM-C was lifted into orbit during the mission ‘H-IIA 202 | GCOM-C1 & SLATS’, on board a H-IIA space rocket.

The launch took place on Dec. 23, 2017, 1:26 a.m. from Yoshinobu Launch Complex LP-1.

For more information about the launch, click the button.

Launch to space H-IIA 202 | GCOM-C1 & SLATS
H-IIA 202 | GCOM-C1 & SLATS

Agency: N/A

Status: Launch Successful

Launch date: Dec. 23, 2017, 1:26 a.m. UTC

Rocket: H-IIA

Launch pad: Yoshinobu Launch Complex LP-1

Location: Tanegashima Space Center, Japan

...

Latest news about this satellite

There are no fresh news available about this satellite. Check back as we update our databases every day.


Newsletter sign-up

Weekly statistics, charts and insights to help you stay on top of the space industry.